Weather History for NFNA - December, 2002

Change the Weather History Date:

Sunday, December 29, 2002

  Actual Average Record
Temperature  
Mean Temperature 78 °F -  
Max Temperature 84 °F - - ()
Min Temperature 73 °F - - ()
Cooling Degree Days 14    
Growing Degree Days 28 (Base 50)    
Moisture  
Dew Point 72 °F    
Average Humidity 79    
Maximum Humidity 94    
Minimum Humidity 66    
Precipitation  
Precipitation 0.00 in - - ()
Sea Level Pressure  
Sea Level Pressure 29.81 in    
Wind  
Wind Speed 7 mph ()    
Max Wind Speed 18 mph    
Max Gust Speed -    
T = Trace of Precipitation, MM = Missing Value Source: Averaged Metar Reports

Daily Weather History Graph

Daily Weather History Graph

Search for Another Location

Airport or City:

Trip Planner

Search our weather history database for the weather conditions in past years. The results will help you decide how hot, cold, wet, or windy it might be!

Date:

Astronomy

Dec. 29, 2002 Rise Set
Actual Time 5:31 AM FJT 6:43 PM FJT
Civil Twilight 5:07 AM FJT 7:07 PM FJT
Nautical Twilight 4:38 AM FJT 7:36 PM FJT
Astronomical Twilight 4:08 AM FJT 8:05 PM FJT
Moon 1:13 AM FJT (12/29) 2:00 PM FJT (12/29)
Length of Visible Light 14h 00m
Length of Day
13h 12m
Waning Crescent, 28% of the Moon is Illuminated
Dec 29
Waning Crescent
Jan 3
New
Jan 11
First Quarter
Jan 18
Full
Jan 25
Last Quarter

Hourly Weather History & Observations

Time (FJT) Temp. Heat Index Dew Point Humidity Pressure Visibility Wind Dir Wind Speed Gust Speed Precip Events Conditions
12:00 AM 77.0 °F - 71.6 °F 83% 29.86 in 24.9 mi East 3.5 mph - N/A   Mostly Cloudy
1:00 AM 77.0 °F - 71.6 °F 83% 29.86 in 24.9 mi East 5.8 mph - N/A   Scattered Clouds
2:00 AM 77.0 °F - 71.6 °F 83% 29.83 in 24.9 mi East 5.8 mph - N/A   Mostly Cloudy
3:00 AM 77.0 °F - 71.6 °F 83% 29.83 in 24.9 mi Calm Calm - N/A   Scattered Clouds
4:00 AM 75.2 °F - 71.6 °F 89% 29.83 in 24.9 mi North - - N/A   Scattered Clouds
5:00 AM 75.2 °F - 71.6 °F 89% 29.83 in 24.9 mi Calm Calm - N/A   Mostly Cloudy
6:00 AM 73.4 °F - 71.6 °F 94% 29.83 in 31.1 mi Calm Calm - N/A   Mostly Cloudy
7:00 AM 73.4 °F - 71.6 °F 94% 29.83 in 31.1 mi Calm Calm - N/A   Mostly Cloudy
8:00 AM 78.8 °F - 73.4 °F 83% 29.83 in 31.1 mi East 10.4 mph - N/A   Mostly Cloudy
9:00 AM 80.6 °F 84.6 °F 71.6 °F 74% 29.80 in 31.1 mi East 11.5 mph - N/A   Mostly Cloudy
10:00 AM 80.6 °F 84.6 °F 71.6 °F 74% 29.80 in 31.1 mi ESE 17.3 mph - N/A   Mostly Cloudy
11:00 AM 82.4 °F 87.2 °F 71.6 °F 70% 29.80 in 31.1 mi East 18.4 mph - N/A   Mostly Cloudy
12:00 PM 82.4 °F 87.2 °F 71.6 °F 70% 29.80 in 31.1 mi ESE 17.3 mph - N/A   Mostly Cloudy
1:00 PM 84.2 °F 89.6 °F 71.6 °F 66% 29.77 in 31.1 mi East 17.3 mph - N/A   Mostly Cloudy
2:00 PM 84.2 °F 89.6 °F 71.6 °F 66% 29.77 in 31.1 mi East 16.1 mph - N/A   Mostly Cloudy
3:00 PM 84.2 °F 90.9 °F 73.4 °F 70% 29.77 in 31.1 mi East 13.8 mph - N/A   Mostly Cloudy
4:00 PM 82.4 °F 88.2 °F 73.4 °F 74% 29.77 in 31.1 mi East 13.8 mph - N/A   Scattered Clouds
5:00 PM 82.4 °F 88.2 °F 73.4 °F 74% 29.77 in 31.1 mi East 13.8 mph - N/A   Mostly Cloudy
6:00 PM 80.6 °F 85.4 °F 73.4 °F 79% 29.77 in 31.1 mi East 10.4 mph - N/A   Mostly Cloudy
7:00 PM 78.8 °F - 71.6 °F 78% 29.80 in 31.1 mi East 11.5 mph - N/A   Mostly Cloudy
8:00 PM 78.8 °F - 71.6 °F 78% 29.83 in 31.1 mi East 10.4 mph - N/A   Mostly Cloudy
9:00 PM 78.8 °F - 71.6 °F 78% 29.83 in 31.1 mi East 5.8 mph - N/A   Mostly Cloudy
10:00 PM 78.8 °F - 71.6 °F 78% 29.83 in 31.1 mi ESE 4.6 mph - N/A   Mostly Cloudy
11:00 PM 77.0 °F - 71.6 °F 83% 29.83 in 24.9 mi ESE 3.5 mph - N/A   Mostly Cloudy